#Datum;Uhrzeit;WR;Pac;DaySum;Status;WR;Pac;DaySum;Status;Pdc1;Udc;Temp;WR;Pac;DaySum;Status;Pdc1;Udc;Temp;WR;Pac;DaySum;Status;Pdc1;Udc;Temp;WR;Pac;DaySum;Status;Pdc1;Pdc2;Udc1;Udc2;Temp;WR;Pac;DaySum;Status;Pdc1;Pdc2;Udc1;Udc2;Temp;WR;Pac;DaySum;Status;Pdc1;Udc;Temp;WR;Pac;DaySum;Status;Pdc1;Udc;Temp;WR;Pac;DaySum;Status;Pdc1;Udc;Temp
29.11.21;23:55:00;1;432;16319;0;2;0;1675;0;0;0;0;3;0;877;0;0;0;0;4;0;1078;0;0;0;0;5;0;4052;0;0;0;0;0;0;6;0;3138;0;0;0;0;0;0;7;0;1269;0;0;0;0;8;0;1392;0;0;0;0;9;0;844;0;0;0;0
29.11.21;23:50:00;1;428;16283;0;2;0;1675;0;0;0;0;3;0;877;0;0;0;0;4;0;1078;0;0;0;0;5;0;4052;0;0;0;0;0;0;6;0;3138;0;0;0;0;0;0;7;0;1269;0;0;0;0;8;0;1392;0;0;0;0;9;0;844;0;0;0;0
29.11.21;23:45:00;1;704;16247;0;2;0;1675;0;0;0;0;3;0;877;0;0;0;0;4;0;1078;0;0;0;0;5;0;4052;0;0;0;0;0;0;6;0;3138;0;0;0;0;0;0;7;0;1269;0;0;0;0;8;0;1392;0;0;0;0;9;0;844;0;0;0;0
29.11.21;23:40:00;1;545;16185;0;2;0;1675;0;0;0;0;3;0;877;0;0;0;0;4;0;1078;0;0;0;0;5;0;4052;0;0;0;0;0;0;6;0;3138;0;0;0;0;0;0;7;0;1269;0;0;0;0;8;0;1392;0;0;0;0;9;0;844;0;0;0;0
29.11.21;23:35:00;1;620;16140;0;2;0;1675;0;0;0;0;3;0;877;0;0;0;0;4;0;1078;0;0;0;0;5;0;4052;0;0;0;0;0;0;6;0;3138;0;0;0;0;0;0;7;0;1269;0;0;0;0;8;0;1392;0;0;0;0;9;0;844;0;0;0;0
29.11.21;23:30:00;1;432;16077;0;2;0;1675;0;0;0;0;3;0;877;0;0;0;0;4;0;1078;0;0;0;0;5;0;4052;0;0;0;0;0;0;6;0;3138;0;0;0;0;0;0;7;0;1269;0;0;0;0;8;0;1392;0;0;0;0;9;0;844;0;0;0;0
29.11.21;23:25:00;1;502;16040;0;2;0;1675;0;0;0;0;3;0;877;0;0;0;0;4;0;1078;0;0;0;0;5;0;4052;0;0;0;0;0;0;6;0;3138;0;0;0;0;0;0;7;0;1269;0;0;0;0;8;0;1392;0;0;0;0;9;0;844;0;0;0;0
29.11.21;23:20:00;1;1129;15999;0;2;0;1675;0;0;0;0;3;0;877;0;0;0;0;4;0;1078;0;0;0;0;5;0;4052;0;0;0;0;0;0;6;0;3138;0;0;0;0;0;0;7;0;1269;0;0;0;0;8;0;1392;0;0;0;0;9;0;844;0;0;0;0
29.11.21;23:15:00;1;503;15935;0;2;0;1675;0;0;0;0;3;0;877;0;0;0;0;4;0;1078;0;0;0;0;5;0;4052;0;0;0;0;0;0;6;0;3138;0;0;0;0;0;0;7;0;1269;0;0;0;0;8;0;1392;0;0;0;0;9;0;844;0;0;0;0
29.11.21;23:10:00;1;756;15892;0;2;0;1675;0;0;0;0;3;0;877;0;0;0;0;4;0;1078;0;0;0;0;5;0;4052;0;0;0;0;0;0;6;0;3138;0;0;0;0;0;0;7;0;1269;0;0;0;0;8;0;1392;0;0;0;0;9;0;844;0;0;0;0
29.11.21;23:05:00;1;463;15833;0;2;0;1675;0;0;0;0;3;0;877;0;0;0;0;4;0;1078;0;0;0;0;5;0;4052;0;0;0;0;0;0;6;0;3138;0;0;0;0;0;0;7;0;1269;0;0;0;0;8;0;1392;0;0;0;0;9;0;844;0;0;0;0
29.11.21;23:00:00;1;947;15794;0;2;0;1675;0;0;0;0;3;0;877;0;0;0;0;4;0;1078;0;0;0;0;5;0;4052;0;0;0;0;0;0;6;0;3138;0;0;0;0;0;0;7;0;1269;0;0;0;0;8;0;1392;0;0;0;0;9;0;844;0;0;0;0
29.11.21;22:55:00;1;510;15737;0;2;0;1675;0;0;0;0;3;0;877;0;0;0;0;4;0;1078;0;0;0;0;5;0;4052;2;0;0;0;0;0;6;0;3138;2;0;0;0;0;0;7;0;1269;0;0;0;0;8;0;1392;0;0;0;0;9;0;844;0;0;0;0
29.11.21;22:50:00;1;986;15693;0;2;0;1675;0;0;0;0;3;0;877;0;0;0;0;4;0;1078;0;0;0;0;5;0;4052;2;0;0;0;0;0;6;0;3138;2;0;0;0;0;0;7;0;1269;0;0;0;0;8;0;1392;0;0;0;0;9;0;844;0;0;0;0
29.11.21;22:45:00;1;495;15630;0;2;0;1675;0;0;0;0;3;0;877;0;0;0;0;4;0;1078;0;0;0;0;5;0;4052;2;0;0;0;0;0;6;0;3138;2;0;0;0;0;0;7;0;1269;0;0;0;0;8;0;1392;0;0;0;0;9;0;844;0;0;0;0
29.11.21;22:40:00;1;485;15589;0;2;0;1675;0;0;0;0;3;0;877;0;0;0;0;4;0;1078;0;0;0;0;5;0;4052;2;0;0;0;0;0;6;0;3138;2;0;0;0;0;0;7;0;1269;0;0;0;0;8;0;1392;0;0;0;0;9;0;844;0;0;0;0
29.11.21;22:35:00;1;486;15529;0;2;0;1675;0;0;0;0;3;0;877;0;0;0;0;4;0;1078;0;0;0;0;5;0;4052;2;0;0;0;0;0;6;0;3138;2;0;0;0;0;0;7;0;1269;0;0;0;0;8;0;1392;0;0;0;0;9;0;844;0;0;0;0
29.11.21;22:30:00;1;619;15485;0;2;0;1675;0;0;0;0;3;0;877;0;0;0;0;4;0;1078;0;0;0;0;5;0;4052;2;0;0;0;0;0;6;0;3138;2;0;0;0;0;0;7;0;1269;0;0;0;0;8;0;1392;0;0;0;0;9;0;844;0;0;0;0
29.11.21;22:25:00;1;629;15414;0;2;0;1675;0;0;0;0;3;0;877;0;0;0;0;4;0;1078;0;0;0;0;5;0;4052;2;0;0;0;0;0;6;0;3138;2;0;0;0;0;0;7;0;1269;0;0;0;0;8;0;1392;0;0;0;0;9;0;844;0;0;0;0
29.11.21;22:20:00;1;1175;15362;0;2;0;1675;0;0;0;0;3;0;877;0;0;0;0;4;0;1078;0;0;0;0;5;0;4052;2;0;0;0;0;0;6;0;3138;2;0;0;0;0;0;7;0;1269;0;0;0;0;8;0;1392;0;0;0;0;9;0;844;0;0;0;0
29.11.21;22:15:00;1;516;15259;0;2;0;1675;0;0;0;0;3;0;877;0;0;0;0;4;0;1078;0;0;0;0;5;0;4052;2;0;0;0;0;0;6;0;3138;2;0;0;0;0;0;7;0;1269;0;0;0;0;8;0;1392;0;0;0;0;9;0;844;0;0;0;0
29.11.21;22:10:00;1;525;15216;0;2;0;1675;0;0;0;0;3;0;877;0;0;0;0;4;0;1078;0;0;0;0;5;0;4052;2;0;0;0;0;0;6;0;3138;2;0;0;0;0;0;7;0;1269;0;0;0;0;8;0;1392;0;0;0;0;9;0;844;0;0;0;0
29.11.21;22:05:00;1;725;15153;0;2;0;1675;0;0;0;0;3;0;877;0;0;0;0;4;0;1078;0;0;0;0;5;0;4052;2;0;0;0;0;0;6;0;3138;2;0;0;0;0;0;7;0;1269;0;0;0;0;8;0;1392;0;0;0;0;9;0;844;0;0;0;0
29.11.21;22:00:00;1;619;15108;0;2;0;1675;0;0;0;0;3;0;877;0;0;0;0;4;0;1078;0;0;0;0;5;0;4052;2;0;0;0;0;0;6;0;3138;2;0;0;0;0;0;7;0;1269;0;0;0;0;8;0;1392;0;0;0;0;9;0;844;0;0;0;0
29.11.21;21:55:00;1;666;15035;0;2;0;1675;0;0;0;0;3;0;877;0;0;0;0;4;0;1078;0;0;0;0;5;0;4052;2;0;0;0;0;0;6;0;3138;2;0;0;0;0;0;7;0;1269;0;0;0;0;8;0;1392;0;0;0;0;9;0;844;0;0;0;0
29.11.21;21:50:00;1;650;14980;0;2;0;1675;0;0;0;0;3;0;877;0;0;0;0;4;0;1078;0;0;0;0;5;0;4052;2;0;0;0;0;0;6;0;3138;2;0;0;0;0;0;7;0;1269;0;0;0;0;8;0;1392;0;0;0;0;9;0;844;0;0;0;0
29.11.21;21:45:00;1;617;14905;0;2;0;1675;0;0;0;0;3;0;877;0;0;0;0;4;0;1078;0;0;0;0;5;0;4052;2;0;0;0;0;0;6;0;3138;2;0;0;0;0;0;7;0;1269;0;0;0;0;8;0;1392;0;0;0;0;9;0;844;0;0;0;0
29.11.21;21:40:00;1;799;14854;0;2;0;1675;0;0;0;0;3;0;877;0;0;0;0;4;0;1078;0;0;0;0;5;0;4052;2;0;0;0;0;0;6;0;3138;2;0;0;0;0;0;7;0;1269;0;0;0;0;8;0;1392;0;0;0;0;9;0;844;0;0;0;0
29.11.21;21:35:00;1;673;14781;0;2;0;1675;0;0;0;0;3;0;877;0;0;0;0;4;0;1078;0;0;0;0;5;0;4052;2;0;0;0;0;0;6;0;3138;2;0;0;0;0;0;7;0;1269;0;0;0;0;8;0;1392;0;0;0;0;9;0;844;0;0;0;0
29.11.21;21:30:00;1;899;14724;0;2;0;1675;0;0;0;0;3;0;877;0;0;0;0;4;0;1078;0;0;0;0;5;0;4052;2;0;0;0;0;0;6;0;3138;2;0;0;0;0;0;7;0;1269;0;0;0;0;8;0;1392;0;0;0;0;9;0;844;0;0;0;0
29.11.21;21:25:00;1;614;14649;0;2;0;1675;0;0;0;0;3;0;877;0;0;0;0;4;0;1078;0;0;0;0;5;0;4052;2;0;0;0;0;0;6;0;3138;2;0;0;0;0;0;7;0;1269;0;0;0;0;8;0;1392;0;0;0;0;9;0;844;0;0;0;0
29.11.21;21:20:00;1;715;14597;0;2;0;1675;0;0;0;0;3;0;877;0;0;0;0;4;0;1078;0;0;0;0;5;0;4052;2;0;0;0;0;0;6;0;3138;2;0;0;0;0;0;7;0;1269;0;0;0;0;8;0;1392;0;0;0;0;9;0;844;0;0;0;0
29.11.21;21:15:00;1;886;14521;0;2;0;1675;0;0;0;0;3;0;877;0;0;0;0;4;0;1078;0;0;0;0;5;0;4052;2;0;0;0;0;0;6;0;3138;2;0;0;0;0;0;7;0;1269;0;0;0;0;8;0;1392;0;0;0;0;9;0;844;0;0;0;0
29.11.21;21:10:00;1;657;14444;0;2;0;1675;0;0;0;0;3;0;877;0;0;0;0;4;0;1078;0;0;0;0;5;0;4052;2;0;0;0;0;0;6;0;3138;2;0;0;0;0;0;7;0;1269;0;0;0;0;8;0;1392;0;0;0;0;9;0;844;0;0;0;0
29.11.21;21:05:00;1;1067;14388;0;2;0;1675;0;0;0;0;3;0;877;0;0;0;0;4;0;1078;0;0;0;0;5;0;4052;2;0;0;0;0;0;6;0;3138;2;0;0;0;0;0;7;0;1269;0;0;0;0;8;0;1392;0;0;0;0;9;0;844;0;0;0;0
29.11.21;21:00:00;1;677;14310;0;2;0;1675;0;0;0;0;3;0;877;0;0;0;0;4;0;1078;0;0;0;0;5;0;4052;2;0;0;0;0;0;6;0;3138;2;0;0;0;0;0;7;0;1269;0;0;0;0;8;0;1392;0;0;0;0;9;0;844;0;0;0;0
29.11.21;20:55:00;1;1022;14254;0;2;0;1675;0;0;0;0;3;0;877;0;0;0;0;4;0;1078;0;0;0;0;5;0;4052;2;0;0;0;0;0;6;0;3138;2;0;0;0;0;0;7;0;1269;0;0;0;0;8;0;1392;0;0;0;0;9;0;844;0;0;0;0
29.11.21;20:50:00;1;663;14176;0;2;0;1675;0;0;0;0;3;0;877;0;0;0;0;4;0;1078;0;0;0;0;5;0;4052;2;0;0;0;0;0;6;0;3138;2;0;0;0;0;0;7;0;1269;0;0;0;0;8;0;1392;0;0;0;0;9;0;844;0;0;0;0
29.11.21;20:45:00;1;823;14108;0;2;0;1675;0;0;0;0;3;0;877;0;0;0;0;4;0;1078;0;0;0;0;5;0;4052;2;0;0;0;0;0;6;0;3138;2;0;0;0;0;0;7;0;1269;0;0;0;0;8;0;1392;0;0;0;0;9;0;844;0;0;0;0
29.11.21;20:40:00;1;633;14043;0;2;0;1675;0;0;0;0;3;0;877;0;0;0;0;4;0;1078;0;0;0;0;5;0;4052;2;0;0;0;0;0;6;0;3138;2;0;0;0;0;0;7;0;1269;0;0;0;0;8;0;1392;0;0;0;0;9;0;844;0;0;0;0
29.11.21;20:35:00;1;624;13968;0;2;0;1675;0;0;0;0;3;0;877;0;0;0;0;4;0;1078;0;0;0;0;5;0;4052;2;0;0;0;0;0;6;0;3138;2;0;0;0;0;0;7;0;1269;0;0;0;0;8;0;1392;0;0;0;0;9;0;844;0;0;0;0
29.11.21;20:30:00;1;877;13915;0;2;0;1675;0;0;0;0;3;0;877;0;0;0;0;4;0;1078;0;0;0;0;5;0;4052;2;0;0;0;0;0;6;0;3138;2;0;0;0;0;0;7;0;1269;0;0;0;0;8;0;1392;0;0;0;0;9;0;844;0;0;0;0
29.11.21;20:25:00;1;784;13838;0;2;0;1675;0;0;0;0;3;0;877;0;0;0;0;4;0;1078;0;0;0;0;5;0;4052;2;0;0;0;0;0;6;0;3138;2;0;0;0;0;0;7;0;1269;0;0;0;0;8;0;1392;0;0;0;0;9;0;844;0;0;0;0
29.11.21;20:20:00;1;545;13770;0;2;0;1675;0;0;0;0;3;0;877;0;0;0;0;4;0;1078;0;0;0;0;5;0;4052;2;0;0;0;0;0;6;0;3138;2;0;0;0;0;0;7;0;1269;0;0;0;0;8;0;1392;0;0;0;0;9;0;844;0;0;0;0
29.11.21;20:15:00;1;763;13704;0;2;0;1675;0;0;0;0;3;0;877;0;0;0;0;4;0;1078;0;0;0;0;5;0;4052;2;0;0;0;0;0;6;0;3138;2;0;0;0;0;0;7;0;1269;0;0;0;0;8;0;1392;0;0;0;0;9;0;844;0;0;0;0
29.11.21;20:10:00;1;747;13655;0;2;0;1675;0;0;0;0;3;0;877;0;0;0;0;4;0;1078;0;0;0;0;5;0;4052;2;0;0;0;0;0;6;0;3138;2;0;0;0;0;0;7;0;1269;0;0;0;0;8;0;1392;0;0;0;0;9;0;844;0;0;0;0
29.11.21;20:05:00;1;1086;13576;0;2;0;1675;0;0;0;0;3;0;877;0;0;0;0;4;0;1078;0;0;0;0;5;0;4052;2;0;0;0;0;0;6;0;3138;2;0;0;0;0;0;7;0;1269;0;0;0;0;8;0;1392;0;0;0;0;9;0;844;0;0;0;0
29.11.21;20:00:00;1;1188;13499;0;2;0;1675;0;0;0;0;3;0;877;0;0;0;0;4;0;1078;0;0;0;0;5;0;4052;2;0;0;0;0;0;6;0;3138;2;0;0;0;0;0;7;0;1269;0;0;0;0;8;0;1392;0;0;0;0;9;0;844;0;0;0;0
29.11.21;19:55:00;1;907;13425;0;2;0;1675;0;0;0;0;3;0;877;0;0;0;0;4;0;1078;0;0;0;0;5;0;4052;2;0;0;0;0;0;6;0;3138;2;0;0;0;0;0;7;0;1269;0;0;0;0;8;0;1392;0;0;0;0;9;0;844;0;0;0;0
29.11.21;19:50:00;1;897;13359;0;2;0;1675;0;0;0;0;3;0;877;0;0;0;0;4;0;1078;0;0;0;0;5;0;4052;2;0;0;0;0;0;6;0;3138;2;0;0;0;0;0;7;0;1269;0;0;0;0;8;0;1392;0;0;0;0;9;0;844;0;0;0;0
29.11.21;19:45:00;1;622;13301;0;2;0;1675;0;0;0;0;3;0;877;0;0;0;0;4;0;1078;0;0;0;0;5;0;4052;2;0;0;0;0;0;6;0;3138;2;0;0;0;0;0;7;0;1269;0;0;0;0;8;0;1392;0;0;0;0;9;0;844;0;0;0;0
29.11.21;19:40:00;1;1859;13240;0;2;0;1675;0;0;0;0;3;0;877;0;0;0;0;4;0;1078;0;0;0;0;5;0;4052;2;0;0;0;0;0;6;0;3138;2;0;0;0;0;0;7;0;1269;0;0;0;0;8;0;1392;0;0;0;0;9;0;844;0;0;0;0
29.11.21;19:35:00;1;1201;13078;0;2;0;1675;0;0;0;0;3;0;877;0;0;0;0;4;0;1078;0;0;0;0;5;0;4052;2;0;0;0;0;0;6;0;3138;2;0;0;0;0;0;7;0;1269;0;0;0;0;8;0;1392;0;0;0;0;9;0;844;0;0;0;0
29.11.21;19:30:00;1;793;12999;0;2;0;1675;0;0;0;0;3;0;877;0;0;0;0;4;0;1078;0;0;0;0;5;0;4052;2;0;0;0;0;0;6;0;3138;2;0;0;0;0;0;7;0;1269;0;0;0;0;8;0;1392;0;0;0;0;9;0;844;0;0;0;0
29.11.21;19:25:00;1;805;12932;0;2;0;1675;0;0;0;0;3;0;877;0;0;0;0;4;0;1078;0;0;0;0;5;0;4052;2;0;0;0;0;0;6;0;3138;2;0;0;0;0;0;7;0;1269;0;0;0;0;8;0;1392;0;0;0;0;9;0;844;0;0;0;0
29.11.21;19:20:00;1;855;12847;0;2;0;1675;0;0;0;0;3;0;877;0;0;0;0;4;0;1078;0;0;0;0;5;0;4052;2;0;0;0;0;0;6;0;3138;2;0;0;0;0;0;7;0;1269;0;0;0;0;8;0;1392;0;0;0;0;9;0;844;0;0;0;0
29.11.21;19:15:00;1;3019;12713;0;2;0;1675;0;0;0;0;3;0;877;0;0;0;0;4;0;1078;0;0;0;0;5;0;4052;2;0;0;0;0;0;6;0;3138;2;0;0;0;0;0;7;0;1269;0;0;0;0;8;0;1392;0;0;0;0;9;0;844;0;0;0;0
29.11.21;19:10:00;1;3425;12456;0;2;0;1675;0;0;0;0;3;0;877;0;0;0;0;4;0;1078;0;0;0;0;5;0;4052;2;0;0;0;0;0;6;0;3138;2;0;0;0;0;0;7;0;1269;0;0;0;0;8;0;1392;0;0;0;0;9;0;844;0;0;0;0
29.11.21;19:05:00;1;3695;12170;0;2;0;1675;0;0;0;0;3;0;877;0;0;0;0;4;0;1078;0;0;0;0;5;0;4052;2;0;0;0;0;0;6;0;3138;2;0;0;0;0;0;7;0;1269;0;0;0;0;8;0;1392;0;0;0;0;9;0;844;0;0;0;0
29.11.21;19:00:00;1;3112;11860;0;2;0;1675;0;0;0;0;3;0;877;0;0;0;0;4;0;1078;0;0;0;0;5;0;4052;2;0;0;0;0;0;6;0;3138;2;0;0;0;0;0;7;0;1269;0;0;0;0;8;0;1392;0;0;0;0;9;0;844;0;0;0;0
29.11.21;18:55:00;1;2917;11608;0;2;0;1675;0;0;0;0;3;0;877;0;0;0;0;4;0;1078;0;0;0;0;5;0;4052;2;0;0;0;0;0;6;0;3138;2;0;0;0;0;0;7;0;1269;0;0;0;0;8;0;1392;0;0;0;0;9;0;844;0;0;0;0
29.11.21;18:50:00;1;3166;11365;0;2;0;1675;0;0;0;0;3;0;877;0;0;0;0;4;0;1078;0;0;0;0;5;0;4052;2;0;0;0;0;0;6;0;3138;2;0;0;0;0;0;7;0;1269;0;0;0;0;8;0;1392;0;0;0;0;9;0;844;0;0;0;0
29.11.21;18:45:00;1;2853;11104;0;2;0;1675;0;0;0;0;3;0;877;0;0;0;0;4;0;1078;0;0;0;0;5;0;4052;2;0;0;0;0;0;6;0;3138;2;0;0;0;0;0;7;0;1269;0;0;0;0;8;0;1392;0;0;0;0;9;0;844;0;0;0;0
29.11.21;18:40:00;1;2849;10866;0;2;0;1675;0;0;0;0;3;0;877;0;0;0;0;4;0;1078;0;0;0;0;5;0;4052;2;0;0;0;0;0;6;0;3138;2;0;0;0;0;0;7;0;1269;0;0;0;0;8;0;1392;0;0;0;0;9;0;844;0;0;0;0
29.11.21;18:35:00;1;1024;10632;0;2;0;1675;0;0;0;0;3;0;877;0;0;0;0;4;0;1078;0;0;0;0;5;0;4052;2;0;0;0;0;0;6;0;3138;2;0;0;0;0;0;7;0;1269;0;0;0;0;8;0;1392;0;0;0;0;9;0;844;0;0;0;0
29.11.21;18:30:00;1;1088;10558;0;2;0;1675;0;0;0;0;3;0;877;0;0;0;0;4;0;1078;0;0;0;0;5;0;4052;2;0;0;0;0;0;6;0;3138;2;0;0;0;0;0;7;0;1269;0;0;0;0;8;0;1392;0;0;0;0;9;0;844;0;0;0;0
29.11.21;18:25:00;1;3251;10417;0;2;0;1675;0;0;0;0;3;0;877;0;0;0;0;4;0;1078;0;0;0;0;5;0;4052;2;0;0;0;0;0;6;0;3138;2;0;0;0;0;0;7;0;1269;0;0;0;0;8;0;1392;0;0;0;0;9;0;844;0;0;0;0
29.11.21;18:20:00;1;2832;10122;0;2;0;1675;0;0;0;0;3;0;877;0;0;0;0;4;0;1078;0;0;0;0;5;0;4052;2;0;0;0;0;0;6;0;3138;2;0;0;0;0;0;7;0;1269;0;0;0;0;8;0;1392;0;0;0;0;9;0;844;0;0;0;0
29.11.21;18:15:00;1;1294;9900;0;2;0;1675;0;0;0;0;3;0;877;0;0;0;0;4;0;1078;0;0;0;0;5;0;4052;2;0;0;0;0;0;6;0;3138;2;0;0;0;0;0;7;0;1269;0;0;0;0;8;0;1392;0;0;0;0;9;0;844;0;0;0;0
29.11.21;18:10:00;1;867;9810;0;2;0;1675;0;0;0;0;3;0;877;0;0;0;0;4;0;1078;0;0;0;0;5;0;4052;2;0;0;0;0;0;6;0;3138;2;0;0;0;0;0;7;0;1269;0;0;0;0;8;0;1392;0;0;0;0;9;0;844;0;0;0;0
29.11.21;18:05:00;1;1154;9739;0;2;0;1675;0;0;0;0;3;0;877;0;0;0;0;4;0;1078;0;0;0;0;5;0;4052;2;0;0;0;0;0;6;0;3138;2;0;0;0;0;0;7;0;1269;0;0;0;0;8;0;1392;0;0;0;0;9;0;844;0;0;0;0
29.11.21;18:00:00;1;1398;9645;0;2;0;1675;0;0;0;0;3;0;877;0;0;0;0;4;0;1078;0;0;0;0;5;0;4052;2;0;0;0;0;0;6;0;3138;2;0;0;0;0;0;7;0;1269;0;0;0;0;8;0;1392;0;0;0;0;9;0;844;0;0;0;0
29.11.21;17:55:00;1;1051;9507;0;2;0;1675;0;0;0;0;3;0;877;0;0;0;0;4;0;1078;0;0;0;0;5;0;4052;2;0;0;0;0;0;6;0;3138;2;0;0;0;0;0;7;0;1269;0;0;0;0;8;0;1392;0;0;0;0;9;0;844;0;0;0;0
29.11.21;17:50:00;1;849;9418;0;2;0;1675;0;0;0;0;3;0;877;0;0;0;0;4;0;1078;0;0;0;0;5;0;4052;2;0;0;0;0;0;6;0;3138;2;0;0;0;0;0;7;0;1269;0;0;0;0;8;0;1392;0;0;0;0;9;0;844;0;0;0;0
29.11.21;17:45:00;1;1780;9333;0;2;0;1675;0;0;0;0;3;0;877;0;0;0;0;4;0;1078;0;0;0;0;5;0;4052;2;0;0;0;0;0;6;0;3138;2;0;0;0;0;0;7;0;1269;0;0;0;0;8;0;1392;0;0;0;0;9;0;844;0;0;0;0
29.11.21;17:40:00;1;904;9245;0;2;0;1675;0;0;0;0;3;0;877;0;0;0;0;4;0;1078;0;0;0;0;5;0;4052;2;0;0;0;0;0;6;0;3138;2;0;0;0;0;0;7;0;1269;0;0;0;0;8;0;1392;0;0;0;0;9;0;844;0;0;0;0
29.11.21;17:35:00;1;1151;9149;0;2;0;1675;0;0;0;0;3;0;877;0;0;0;0;4;0;1078;0;0;0;0;5;0;4052;2;0;0;0;0;0;6;0;3138;2;0;0;0;0;0;7;0;1269;0;0;0;0;8;0;1392;0;0;0;0;9;0;844;0;0;0;0
29.11.21;17:30:00;1;1115;9042;0;2;0;1675;0;0;0;0;3;0;877;0;0;0;0;4;0;1078;0;0;0;0;5;0;4052;2;0;0;0;0;0;6;0;3138;2;0;0;0;0;0;7;0;1269;0;0;0;0;8;0;1392;0;0;0;0;9;0;844;0;0;0;0
29.11.21;17:25:00;1;1213;8949;0;2;0;1675;0;0;0;0;3;0;877;0;0;0;0;4;0;1078;0;0;0;0;5;0;4052;2;0;0;0;0;0;6;0;3138;2;0;0;0;0;0;7;0;1269;0;0;0;0;8;0;1392;0;0;0;0;9;0;844;0;0;0;0
29.11.21;17:20:00;1;1176;8856;0;2;0;1675;0;0;0;0;3;0;877;0;0;0;0;4;0;1078;0;0;0;0;5;0;4052;2;0;0;0;0;0;6;0;3138;2;0;0;0;0;0;7;0;1269;0;0;0;0;8;0;1392;0;0;0;0;9;0;844;0;0;0;0
29.11.21;17:15:00;1;917;8762;0;2;0;1675;0;0;0;0;3;0;877;0;0;0;0;4;0;1078;0;0;0;0;5;0;4052;2;0;0;0;0;0;6;0;3138;2;0;0;0;0;0;7;0;1269;0;0;0;0;8;0;1392;0;0;0;0;9;0;844;0;0;0;0
29.11.21;17:10:00;1;935;8685;0;2;0;1675;0;0;0;0;3;0;877;0;0;0;0;4;0;1078;0;0;0;0;5;0;4052;2;0;0;0;0;0;6;0;3138;2;0;0;0;0;0;7;0;1269;0;0;0;0;8;0;1392;0;0;0;0;9;0;844;0;0;0;0
29.11.21;17:05:00;1;930;8607;0;2;0;1675;0;0;0;0;3;0;877;0;0;0;0;4;0;1078;0;0;0;0;5;0;4052;2;0;0;0;0;0;6;0;3138;2;0;0;0;0;0;7;0;1269;0;0;0;0;8;0;1392;0;0;0;0;9;0;844;0;0;0;0
29.11.21;17:00:00;1;973;8530;0;2;0;1675;0;0;0;0;3;0;877;0;0;0;0;4;0;1078;0;0;0;0;5;0;4052;2;0;0;0;0;0;6;0;3138;2;0;0;0;0;0;7;0;1269;0;0;0;0;8;0;1392;0;0;0;0;9;0;844;0;0;0;0
29.11.21;16:55:00;1;969;8449;0;2;0;1675;0;0;0;0;3;0;877;0;0;0;0;4;0;1078;0;0;0;0;5;0;4052;2;0;0;0;0;0;6;0;3138;2;0;0;0;0;0;7;0;1269;0;0;0;0;8;0;1392;0;0;0;0;9;0;844;0;0;0;0
29.11.21;16:50:00;1;755;8355;0;2;0;1675;0;0;0;0;3;0;877;0;0;0;0;4;0;1078;0;0;0;0;5;0;4052;2;0;0;0;0;0;6;0;3138;2;0;0;0;0;0;7;0;1269;0;0;0;0;8;0;1392;0;0;0;0;9;0;844;0;0;0;0
29.11.21;16:45:00;1;797;8293;0;2;0;1675;0;0;0;0;3;0;877;0;0;34;1;4;0;1078;0;0;0;0;5;0;4052;2;0;0;0;0;0;6;0;3138;2;0;0;0;0;0;7;0;1269;0;0;0;0;8;0;1392;0;0;0;0;9;0;844;0;0;0;0
29.11.21;16:40:00;1;874;8226;0;2;0;1675;0;0;209;6;3;0;877;6;0;286;12;4;0;1078;0;0;0;0;5;0;4052;2;0;0;0;0;0;6;0;3138;2;0;0;0;0;0;7;0;1269;0;0;0;0;8;0;1392;0;0;0;0;9;0;844;0;0;0;0
29.11.21;16:35:00;1;492;8154;0;2;0;1675;6;0;300;8;3;0;877;6;0;344;12;4;0;1078;0;0;65;5;5;0;4052;2;0;0;0;0;0;6;0;3138;2;0;0;0;0;0;7;0;1269;0;0;0;0;8;0;1392;0;0;0;0;9;0;844;0;0;0;0
29.11.21;16:30:00;1;432;8113;0;2;0;1675;6;0;338;9;3;0;877;6;1;402;12;4;0;1078;1;0;113;6;5;0;4052;2;0;1;228;227;17;6;0;3138;2;6;2;16;16;3;7;0;1269;0;0;0;0;8;0;1392;0;0;101;4;9;0;844;0;0;160;4
29.11.21;16:25:00;1;456;8077;0;2;0;1675;6;0;355;9;3;0;877;6;1;430;12;4;0;1078;1;0;136;6;5;0;4052;23;0;4;324;322;22;6;0;3138;26;0;1;162;160;9;7;0;1269;0;0;48;1;8;0;1392;7;0;192;6;9;0;844;7;0;202;5
29.11.21;16:20:00;1;359;8025;0;2;0;1675;6;0;341;9;3;0;877;6;0;410;12;4;0;1078;1;0;119;6;5;0;4052;2;0;0;318;319;22;6;0;3138;2;116;108;21;20;8;7;0;1269;0;0;0;0;8;0;1392;0;0;0;0;9;0;844;0;0;100;3
29.11.21;16:15:00;1;352;7995;0;2;0;1675;6;0;363;9;3;0;877;6;0;443;12;4;0;1078;1;0;153;7;5;0;4052;23;0;0;401;474;23;6;0;3138;26;0;0;530;524;21;7;0;1269;6;0;286;12;8;0;1392;6;0;293;12;9;0;844;6;0;310;8
29.11.21;16:10:00;1;364;7966;0;2;0;1675;6;0;390;9;3;0;877;3;2;474;12;4;0;1078;1;0;202;7;5;8;4052;26;0;0;414;641;23;6;5;3138;1;0;0;570;559;21;7;0;1269;6;0;387;12;8;0;1392;6;0;396;12;9;0;844;6;0;418;8
29.11.21;16:05:00;1;340;7935;0;2;0;1675;6;0;396;9;3;1;877;6;3;489;12;4;0;1078;1;0;215;7;5;21;4051;26;3;5;411;643;23;6;6;3138;1;0;0;577;563;22;7;0;1269;6;0;390;12;8;0;1392;6;0;392;12;9;0;844;6;0;434;9
29.11.21;16:00:00;1;357;7907;0;2;0;1675;6;0;411;9;3;2;877;6;5;504;12;4;0;1078;3;0;213;8;5;82;4049;4;17;22;371;579;24;6;41;3137;1;2;11;566;546;22;7;1;1269;6;2;440;13;8;0;1392;6;2;443;12;9;0;844;6;0;500;9
29.11.21;15:55:00;1;419;7860;0;2;3;1675;6;7;414;10;3;0;877;6;5;524;12;4;4;1078;3;4;200;8;5;118;4042;4;42;40;371;580;24;6;90;3133;4;10;30;534;516;23;7;1;1269;6;4;476;13;8;0;1392;6;6;478;13;9;2;844;3;6;503;9
29.11.21;15:50:00;1;385;7825;0;2;44;1675;6;63;380;10;3;4;877;6;10;537;12;4;16;1077;3;17;200;8;5;163;4032;4;62;60;371;580;24;6;124;3125;4;29;51;534;516;23;7;32;1268;6;42;422;13;8;28;1392;6;41;424;13;9;6;844;6;10;548;9
29.11.21;15:45:00;1;326;7793;0;2;57;1671;4;84;374;10;3;5;877;6;9;546;12;4;24;1076;3;25;200;8;5;174;4018;4;70;64;371;580;24;6;132;3115;4;38;56;534;516;23;7;13;1266;4;25;473;13;8;46;1390;4;73;356;13;9;4;843;6;7;556;9
29.11.21;15:40:00;1;310;7766;0;2;63;1666;4;91;374;10;3;5;876;3;12;544;12;4;30;1074;3;32;200;8;5;185;4003;4;76;72;371;579;24;6;143;3104;4;41;56;534;516;23;7;8;1264;6;12;494;13;8;44;1386;4;69;362;13;9;3;843;6;8;551;9
29.11.21;15:35:00;1;381;7739;0;2;52;1661;4;77;366;10;3;3;876;6;8;542;13;4;19;1072;3;20;200;8;5;157;3988;4;60;57;371;579;24;6;120;3092;4;26;52;534;516;22;7;6;1264;6;10;495;13;8;8;1382;4;9;491;13;9;2;842;6;6;545;9
29.11.21;15:30:00;1;433;7707;0;2;51;1657;4;76;358;10;3;5;875;6;10;536;13;4;13;1070;3;13;199;8;5;161;3975;4;62;60;371;580;24;6;122;3082;4;30;54;534;516;22;7;5;1263;4;9;492;13;8;5;1381;3;9;492;13;9;0;842;6;0;572;9
29.11.21;15:25:00;1;515;7671;0;2;111;1652;4;138;383;10;3;47;875;6;71;522;13;4;72;1069;3;75;203;9;5;279;3961;4;130;108;371;579;24;6;211;3071;4;75;95;534;516;22;7;86;1263;4;115;446;13;8;88;1381;4;122;449;13;9;16;842;3;24;551;9
29.11.21;15:20:00;1;376;7621;0;2;182;1643;4;207;378;10;3;105;871;4;144;504;13;4;138;1063;5;144;230;9;5;385;3937;4;191;165;371;579;24;6;298;3053;4;119;138;534;516;22;7;165;1256;4;195;438;13;8;170;1374;4;202;434;13;9;92;841;4;120;501;9
29.11.21;15:15:00;1;379;7590;0;2;196;1628;4;225;384;10;3;116;863;4;154;520;13;4;153;1052;5;159;232;9;5;406;3904;4;199;177;371;579;24;6;314;3028;4;129;147;534;516;22;7;171;1242;4;211;485;13;8;194;1360;4;224;475;13;9;106;833;4;131;512;9
29.11.21;15:10:00;1;347;7558;0;2;185;1612;4;215;385;10;3;111;853;4;150;512;13;4;140;1039;5;145;232;9;5;396;3870;4;193;169;371;579;24;6;306;3002;4;120;141;534;516;22;7;147;1228;4;182;492;13;8;168;1343;4;203;478;13;9;92;824;4;119;507;9
29.11.21;15:05:00;1;346;7529;0;2;183;1596;4;212;381;10;3;112;844;4;151;483;13;4;139;1027;5;145;231;9;5;402;3837;4;202;167;371;579;24;6;312;2976;4;124;143;534;516;22;7;135;1216;4;178;437;13;8;151;1329;4;185;415;13;9;88;817;4;114;505;9
29.11.21;15:00:00;1;308;7500;0;2;183;1581;4;209;376;10;3;110;834;4;147;486;13;4;142;1016;5;148;235;9;5;392;3803;4;195;166;371;580;24;6;307;2950;4;125;144;534;516;22;7;120;1205;4;144;452;13;8;132;1317;4;156;450;13;9;54;809;4;68;527;9
29.11.21;14:55:00;1;543;7464;0;2;74;1566;4;98;367;10;3;4;825;6;9;549;13;4;35;1004;3;36;200;9;5;201;3772;4;90;80;371;580;24;6;159;2926;4;50;67;534;516;22;7;3;1196;6;10;497;13;8;6;1307;6;10;499;13;9;3;805;6;7;552;9
29.11.21;14:50:00;1;326;7433;0;2;93;1559;4;119;376;10;3;25;825;6;39;534;13;4;50;1001;3;52;198;9;5;262;3756;4;120;104;371;579;24;6;200;2913;4;72;85;534;516;22;7;43;1196;6;69;457;13;8;47;1306;6;76;459;13;9;1;805;4;5;554;9
29.11.21;14:45:00;1;340;7406;0;2;133;1552;4;164;378;10;3;57;823;4;79;499;13;4;96;997;5;100;213;9;5;316;3733;4;149;128;371;579;24;6;246;2895;4;94;113;534;516;22;7;54;1192;4;70;477;13;8;63;1302;4;75;485;13;9;25;805;3;36;520;9
29.11.21;14:40:00;1;384;7377;0;2;91;1540;4;116;369;10;3;11;818;6;16;552;13;4;46;989;3;48;200;9;5;234;3707;4;105;92;371;580;24;6;182;2875;4;60;81;534;516;22;7;5;1187;6;12;501;14;8;7;1297;6;12;504;13;9;14;802;6;24;517;9
29.11.21;14:35:00;1;395;7344;0;2;5;1533;6;9;415;10;3;1;817;6;6;530;13;4;4;985;3;4;200;9;5;115;3689;4;42;39;371;580;24;6;92;2861;4;10;31;534;516;22;7;2;1187;6;2;467;14;8;3;1296;6;7;464;13;9;1;801;6;2;521;9
29.11.21;14:30:00;1;344;7313;0;2;4;1533;6;9;407;10;3;2;817;4;5;513;13;4;0;984;3;0;200;9;5;101;3679;4;31;34;371;579;24;6;78;2853;4;5;25;534;516;22;7;0;1187;3;1;448;14;8;0;1296;3;2;450;14;9;1;801;6;2;485;10
29.11.21;14:25:00;1;648;7283;0;2;31;1532;6;44;398;11;3;7;817;3;17;512;13;4;13;984;3;13;199;9;5;154;3671;4;64;57;371;579;24;6;120;2846;4;27;48;534;516;22;7;18;1187;6;24;470;14;8;15;1296;6;23;478;14;9;0;801;6;3;539;10
29.11.21;14:20:00;1;396;7232;0;2;83;1530;4;107;376;11;3;9;816;6;14;533;13;4;37;983;3;38;198;9;5;217;3657;4;102;84;371;580;24;6;169;2836;4;57;72;534;516;22;7;61;1185;4;86;399;14;8;55;1295;4;88;445;14;9;7;801;4;11;550;10
29.11.21;14:15:00;1;364;7200;0;2;89;1523;4;113;374;11;3;7;815;6;12;554;13;4;50;980;3;52;198;9;5;234;3639;4;107;97;371;580;24;6;183;2822;4;59;79;534;516;22;7;75;1180;4;110;442;14;8;81;1290;4;115;451;14;9;16;800;3;24;542;10
29.11.21;14:10:00;1;333;7170;0;2;120;1515;4;147;378;11;3;46;814;6;67;531;14;4;76;976;3;80;208;9;5;302;3619;4;146;124;376;580;24;6;231;2806;4;86;108;534;516;22;7;110;1174;4;141;446;14;8;116;1284;4;148;458;14;9;15;798;6;20;581;10
29.11.21;14:05:00;1;333;7142;0;2;208;1505;4;238;385;11;3;125;810;4;162;512;14;4;159;970;5;165;230;9;5;477;3592;4;242;190;412;601;24;6;350;2786;4;146;165;534;522;22;7;178;1164;4;223;458;14;8;212;1273;4;237;460;14;9;111;797;4;136;498;10
29.11.21;14:00:00;1;334;7114;0;2;260;1488;4;292;387;12;3;161;800;4;201;512;14;4;205;956;5;214;241;9;5;556;3551;4;276;233;400;632;24;6;418;2756;4;175;202;534;538;22;7;248;1150;4;277;478;14;8;268;1256;4;307;486;14;9;26;787;4;31;592;10
29.11.21;13:55:00;1;585;7087;0;2;146;1467;4;174;380;12;3;83;787;4;121;494;14;4;102;940;3;107;218;9;5;339;3509;4;168;137;373;581;24;6;260;2724;4;101;120;534;516;22;7;92;1130;4;122;456;14;8;94;1234;4;128;466;14;9;19;785;3;27;555;10
29.11.21;13:50:00;1;347;7042;0;2;252;1455;4;282;386;12;3;154;780;4;193;517;14;4;201;932;5;209;236;9;5;558;3479;4;278;238;401;641;24;6;401;2702;4;174;192;534;516;22;7;209;1123;4;252;472;14;8;242;1227;4;273;467;14;9;131;783;4;161;526;11
29.11.21;13:45:00;1;345;7013;0;2;225;1434;4;256;390;12;3;131;767;4;171;522;14;4;177;915;5;184;237;9;5;524;3433;4;253;215;409;615;24;6;378;2669;4;161;176;540;532;22;7;184;1105;4;230;484;14;8;216;1206;4;250;483;14;9;119;772;4;146;515;11
29.11.21;13:40:00;1;358;6984;0;2;330;1416;4;366;400;12;3;206;756;4;248;511;14;4;275;901;5;286;241;9;5;770;3388;4;387;321;420;677;24;6;559;2636;4;240;262;573;563;22;7;301;1090;4;341;486;14;8;327;1188;4;372;505;14;9;191;762;4;225;537;11
29.11.21;13:35:00;1;392;6953;0;2;419;1387;4;456;404;12;3;264;739;4;309;524;14;4;348;877;5;362;246;9;5;947;3320;4;473;403;431;701;24;6;709;2586;4;316;335;622;562;22;7;393;1065;4;426;506;14;8;449;1161;4;490;493;14;9;254;746;4;290;529;11